Time,TemperatureF,DewpointF,PressureIn,WindDirection,WindDirectionDegrees,WindSpeedMPH,WindSpeedGustMPH,Humidity,HourlyPrecipIn,Conditions,Clouds,dailyrainin,SoftwareType,DateUTC
2013-06-18 00:00:00,54.4,47.7,30.01,NNE,24,5.0,11.0,78,0.00,,OVC120,0.08,VWS V14.01,2013-06-18 05:00:00,
2013-06-18 00:05:00,54.2,47.5,30.01,NNE,23,9.0,9.0,78,0.00,,OVC120,0.00,VWS V14.01,2013-06-18 05:05:00,
2013-06-18 00:10:00,54.1,47.4,30.01,NNE,26,8.0,9.0,78,0.00,,OVC120,0.00,VWS V14.01,2013-06-18 05:10:00,
2013-06-18 00:15:00,53.9,47.5,30.01,NNE,24,0.0,9.0,79,0.00,,OVC120,0.00,VWS V14.01,2013-06-18 05:15:00,
2013-06-18 00:20:00,53.8,47.1,30.03,NNE,30,7.0,7.0,78,0.00,,OVC120,0.00,VWS V14.01,2013-06-18 05:20:00,
2013-06-18 00:25:00,53.6,47.3,30.03,NNE,31,6.0,8.0,79,0.00,,OVC120,0.00,VWS V14.01,2013-06-18 05:25:00,
2013-06-18 00:30:00,53.3,47.0,30.03,NNE,30,4.0,8.0,79,0.00,,OVC120,0.00,VWS V14.01,2013-06-18 05:30:00,
2013-06-18 00:35:00,53.2,46.9,30.03,NNE,30,7.0,7.0,79,0.00,,OVC120,0.00,VWS V14.01,2013-06-18 05:35:00,
2013-06-18 00:40:00,53.1,47.1,30.03,NNE,28,0.0,7.0,80,0.00,,BKN110,0.00,VWS V14.01,2013-06-18 05:40:00,
2013-06-18 00:45:00,52.8,46.8,30.03,NNE,28,0.0,7.0,80,0.00,,BKN110,0.00,VWS V14.01,2013-06-18 05:45:00,
2013-06-18 00:50:00,52.6,46.6,30.03,NNE,28,0.0,0.0,80,0.00,,BKN110,0.00,VWS V14.01,2013-06-18 05:50:00,
2013-06-18 00:55:00,52.3,46.7,30.03,NNE,28,0.0,0.0,81,0.00,,BKN110,0.00,VWS V14.01,2013-06-18 05:55:00,
2013-06-18 01:00:00,52.0,46.4,30.03,NNE,28,0.0,0.0,81,0.00,,BKN110,0.00,VWS V14.01,2013-06-18 06:00:00,
2013-06-18 01:05:00,51.7,46.4,30.03,NNE,21,3.0,7.0,82,0.00,,BKN110,0.00,VWS V14.01,2013-06-18 06:05:00,
2013-06-18 01:10:00,51.6,46.3,30.03,NNE,20,7.0,7.0,82,0.00,,BKN110,0.00,VWS V14.01,2013-06-18 06:10:00,
2013-06-18 01:15:00,51.3,46.0,30.03,NNE,19,5.0,7.0,82,0.00,,BKN110,0.00,VWS V14.01,2013-06-18 06:15:00,
2013-06-18 01:20:00,51.1,45.5,30.03,NNE,18,0.0,0.0,81,0.00,,BKN110,0.00,VWS V14.01,2013-06-18 06:20:00,
2013-06-18 01:25:00,51.0,45.4,30.03,NNE,18,0.0,0.0,81,0.00,,BKN110,0.00,VWS V14.01,2013-06-18 06:25:00,
2013-06-18 01:30:00,50.8,45.2,30.03,NNE,18,3.0,6.0,81,0.00,,BKN110,0.00,VWS V14.01,2013-06-18 06:30:00,
2013-06-18 01:36:00,50.5,44.9,30.03,NNE,18,5.0,6.0,81,0.00,,BKN110,0.00,VWS V14.01,2013-06-18 06:36:00,
2013-06-18 01:41:00,50.4,44.8,30.03,NNE,14,5.0,9.0,81,0.00,,OVC120,0.00,VWS V14.01,2013-06-18 06:41:00,
2013-06-18 01:45:00,52.8,46.8,30.03,NNE,28,0.0,7.0,80,0.00,,,0.00,VWS V15.00,2013-06-18 06:45:00,
2013-06-18 01:46:00,50.2,44.3,30.03,NNE,15,5.0,9.0,80,0.00,,OVC120,0.00,VWS V14.01,2013-06-18 06:46:00,
2013-06-18 01:51:00,50.1,44.2,30.04,NNE,14,0.0,6.0,80,0.00,,OVC120,0.00,VWS V14.01,2013-06-18 06:51:00,
2013-06-18 01:56:00,49.8,43.9,30.04,NNE,15,4.0,7.0,80,0.00,,OVC120,0.00,VWS V14.01,2013-06-18 06:56:00,
2013-06-18 02:00:00,51.9,46.3,30.03,NNE,26,7.0,7.0,81,0.00,,,0.00,VWS V15.00,2013-06-18 07:00:00,
2013-06-18 02:01:00,49.6,43.7,30.04,NNE,16,5.0,7.0,80,0.00,,OVC120,0.00,VWS V14.01,2013-06-18 07:01:00,
2013-06-18 02:06:00,49.5,43.6,30.03,NNE,18,5.0,6.0,80,0.00,,BKN120,0.00,VWS V14.01,2013-06-18 07:06:00,
2013-06-18 02:11:00,49.4,43.8,30.03,NNE,22,6.0,8.0,81,0.00,,BKN120,0.00,VWS V14.01,2013-06-18 07:11:00,
2013-06-18 02:15:00,51.3,46.0,30.03,NNE,18,0.0,7.0,82,0.00,,,0.00,VWS V15.00,2013-06-18 07:15:00,
2013-06-18 02:16:00,49.2,43.6,30.03,NNE,23,7.0,10.0,81,0.00,,BKN120,0.00,VWS V14.01,2013-06-18 07:16:00,
2013-06-18 02:21:00,49.1,43.5,30.03,NNE,22,9.0,9.0,81,0.00,,BKN120,0.00,VWS V14.01,2013-06-18 07:21:00,
2013-06-18 02:26:00,48.9,43.3,30.03,NNE,22,4.0,9.0,81,0.00,,BKN120,0.00,VWS V14.01,2013-06-18 07:26:00,
2013-06-18 02:30:00,50.7,45.1,30.03,NNE,18,4.0,6.0,81,0.00,,,0.00,VWS V15.00,2013-06-18 07:30:00,
2013-06-18 02:31:00,48.8,43.2,30.03,NNE,21,4.0,9.0,81,0.00,,BKN120,0.00,VWS V14.01,2013-06-18 07:31:00,
2013-06-18 02:36:00,48.6,43.4,30.03,NNE,21,6.0,8.0,82,0.00,,BKN120,0.00,VWS V14.01,2013-06-18 07:36:00,
2013-06-18 02:41:00,48.5,43.3,30.03,NNE,19,4.0,8.0,82,0.00,,BKN110,0.00,VWS V14.01,2013-06-18 07:41:00,
2013-06-18 02:45:00,50.1,43.5,30.04,NNE,14,5.0,9.0,78,0.00,,,0.00,VWS V15.00,2013-06-18 07:45:00,
2013-06-18 02:46:00,48.3,43.1,30.03,NNE,19,4.0,8.0,82,0.00,,BKN110,0.00,VWS V14.01,2013-06-18 07:46:00,
2013-06-18 02:51:00,48.2,43.0,30.03,NNE,19,4.0,7.0,82,0.00,,BKN110,0.00,VWS V14.01,2013-06-18 07:51:00,
2013-06-18 02:56:00,48.0,43.1,30.03,NNE,18,4.0,7.0,83,0.00,,BKN110,0.00,VWS V14.01,2013-06-18 07:56:00,
2013-06-18 03:00:00,49.6,43.7,30.03,NNE,16,4.0,7.0,80,0.00,,,0.00,VWS V15.00,2013-06-18 08:00:00,
2013-06-18 03:01:00,47.9,43.0,30.03,NNE,18,3.0,7.0,83,0.00,,BKN110,0.00,VWS V14.01,2013-06-18 08:01:00,
2013-06-18 03:06:00,47.7,42.8,30.03,NNE,18,5.0,7.0,83,0.00,,BKN110,0.00,VWS V14.01,2013-06-18 08:06:00,
2013-06-18 03:11:00,47.6,43.0,30.03,NNE,17,1.0,7.0,84,0.00,,BKN110,0.00,VWS V14.01,2013-06-18 08:11:00,
2013-06-18 03:15:00,49.1,43.2,30.03,NNE,23,7.0,10.0,80,0.00,,,0.00,VWS V15.00,2013-06-18 08:15:00,
2013-06-18 03:16:00,47.4,42.8,30.04,NNE,17,0.0,7.0,84,0.00,,BKN110,0.00,VWS V14.01,2013-06-18 08:16:00,
2013-06-18 03:21:00,47.3,42.7,30.04,NNE,17,0.0,0.0,84,0.00,,BKN110,0.00,VWS V14.01,2013-06-18 08:21:00,
2013-06-18 03:26:00,47.1,42.5,30.04,NNE,17,0.0,0.0,84,0.00,,BKN110,0.00,VWS V14.01,2013-06-18 08:26:00,
2013-06-18 03:30:00,48.8,43.2,30.03,NNE,20,6.0,9.0,81,0.00,,,0.00,VWS V15.00,2013-06-18 08:30:00,
2013-06-18 03:31:00,47.0,42.7,30.03,NNE,18,0.0,0.0,85,0.00,,BKN110,0.00,VWS V14.01,2013-06-18 08:31:00,
2013-06-18 03:36:00,47.0,42.7,30.03,NNE,17,0.0,0.0,85,0.00,,BKN110,0.00,VWS V14.01,2013-06-18 08:36:00,
2013-06-18 03:41:00,46.8,42.8,30.03,NNE,17,0.0,0.0,86,0.00,,BKN110,0.00,VWS V14.01,2013-06-18 08:41:00,
2013-06-18 03:45:00,48.3,43.1,30.03,NNE,19,5.0,8.0,82,0.00,,,0.00,VWS V15.00,2013-06-18 08:45:00,
2013-06-18 03:47:00,46.7,42.7,30.04,NNE,17,0.0,0.0,86,0.00,,BKN110,0.00,VWS V14.01,2013-06-18 08:47:00,
2013-06-18 03:52:00,46.5,42.5,30.04,NNE,17,0.0,0.0,86,0.00,,BKN110,0.00,VWS V14.01,2013-06-18 08:52:00,
2013-06-18 03:57:00,46.5,42.8,30.04,NNE,16,0.0,0.0,87,0.00,,BKN110,0.00,VWS V14.01,2013-06-18 08:57:00,
2013-06-18 04:00:00,47.9,43.0,30.03,NNE,18,3.0,7.0,83,0.00,,,0.00,VWS V15.00,2013-06-18 09:00:00,
2013-06-18 04:02:00,46.5,43.1,30.04,NNE,16,6.0,7.0,88,0.00,,BKN110,0.00,VWS V14.01,2013-06-18 09:02:00,
2013-06-18 04:07:00,46.5,43.1,30.04,NNE,14,5.0,7.0,88,0.00,,BKN110,0.00,VWS V14.01,2013-06-18 09:07:00,
2013-06-18 04:12:00,46.4,43.0,30.04,NNE,14,6.0,7.0,88,0.00,,BKN110,0.00,VWS V14.01,2013-06-18 09:12:00,
2013-06-18 04:15:00,47.4,42.8,30.04,NNE,17,0.0,7.0,84,0.00,,,0.00,VWS V15.00,2013-06-18 09:15:00,
2013-06-18 04:17:00,46.2,42.8,30.04,North,11,0.0,8.0,88,0.00,,BKN110,0.00,VWS V14.01,2013-06-18 09:17:00,
2013-06-18 04:22:00,46.2,43.1,30.04,North,11,5.0,6.0,89,0.00,,BKN110,0.00,VWS V14.01,2013-06-18 09:22:00,
2013-06-18 04:27:00,46.2,43.1,30.04,North,10,5.0,6.0,89,0.00,,BKN110,0.00,VWS V14.01,2013-06-18 09:27:00,
2013-06-18 04:30:00,47.0,42.7,30.03,NNE,18,0.0,0.0,85,0.00,,,0.00,VWS V15.00,2013-06-18 09:30:00,
2013-06-18 04:32:00,46.2,43.1,30.04,North,11,6.0,9.0,89,0.00,,BKN110,0.00,VWS V14.01,2013-06-18 09:32:00,
2013-06-18 04:37:00,46.4,43.3,30.04,NNE,12,9.0,9.0,89,0.00,,BKN110,0.00,VWS V14.01,2013-06-18 09:37:00,
2013-06-18 04:42:00,46.4,43.3,30.04,NNE,13,7.0,10.0,89,0.00,,SCT110,0.00,VWS V14.01,2013-06-18 09:42:00,
2013-06-18 04:45:00,46.7,42.7,30.04,NNE,17,0.0,0.0,86,0.00,,,0.00,VWS V15.00,2013-06-18 09:45:00,
2013-06-18 04:47:00,46.5,43.4,30.05,NNE,15,5.0,10.0,89,0.00,,SCT110,0.00,VWS V14.01,2013-06-18 09:47:00,
2013-06-18 04:52:00,46.5,43.4,30.05,NNE,13,5.0,10.0,89,0.00,,SCT110,0.00,VWS V14.01,2013-06-18 09:52:00,
2013-06-18 04:57:00,46.5,43.7,30.05,NNE,12,7.0,10.0,90,0.00,,SCT110,0.00,VWS V14.01,2013-06-18 09:57:00,
2013-06-18 05:00:00,46.5,43.1,30.04,NNE,15,5.0,7.0,88,0.00,,,0.00,VWS V15.00,2013-06-18 10:00:00,
2013-06-18 05:02:00,46.5,43.7,30.06,NNE,13,0.0,10.0,90,0.00,,SCT110,0.00,VWS V14.01,2013-06-18 10:02:00,
2013-06-18 05:07:00,46.5,43.7,30.06,NNE,13,0.0,0.0,90,0.00,,SCT110,0.00,VWS V14.01,2013-06-18 10:07:00,
2013-06-18 05:12:00,46.4,43.6,30.06,NNE,12,0.0,0.0,90,0.00,,SCT110,0.00,VWS V14.01,2013-06-18 10:12:00,
2013-06-18 05:15:00,46.2,42.8,30.04,North,11,0.0,8.0,88,0.00,,,0.00,VWS V15.00,2013-06-18 10:15:00,
2013-06-18 05:17:00,46.2,43.4,30.06,NNE,12,0.0,0.0,90,0.00,,SCT110,0.00,VWS V14.01,2013-06-18 10:17:00,
2013-06-18 05:22:00,46.1,43.3,30.06,NNE,12,0.0,0.0,90,0.00,,SCT110,0.00,VWS V14.01,2013-06-18 10:22:00,
2013-06-18 05:27:00,45.8,43.3,30.06,NNE,12,5.0,5.0,91,0.00,,SCT110,0.00,VWS V14.01,2013-06-18 10:27:00,
2013-06-18 05:30:00,46.2,43.1,30.04,North,11,5.0,9.0,89,0.00,,,0.00,VWS V15.00,2013-06-18 10:30:00,
2013-06-18 05:32:00,45.8,43.3,30.06,NNE,12,0.0,5.0,91,0.00,,SCT110,0.00,VWS V14.01,2013-06-18 10:32:00,
2013-06-18 05:37:00,45.7,43.2,30.06,NNE,12,0.0,0.0,91,0.00,,SCT110,0.00,VWS V14.01,2013-06-18 10:37:00,
2013-06-18 05:42:00,45.5,43.3,30.06,NNE,12,0.0,0.0,92,0.00,,SCT110,0.00,VWS V14.01,2013-06-18 10:42:00,
2013-06-18 05:45:00,46.5,43.4,30.05,NNE,13,10.0,10.0,89,0.00,,,0.00,VWS V15.00,2013-06-18 10:45:00,
2013-06-18 05:47:00,45.5,43.3,30.07,NNE,12,0.0,0.0,92,0.00,,SCT110,0.00,VWS V14.01,2013-06-18 10:47:00,
2013-06-18 05:52:00,45.5,43.3,30.07,NNE,12,0.0,0.0,92,0.00,,SCT110,0.00,VWS V14.01,2013-06-18 10:52:00,
2013-06-18 05:57:00,45.4,43.2,30.07,NNE,12,0.0,0.0,92,0.00,,SCT110,0.00,VWS V14.01,2013-06-18 10:57:00,
2013-06-18 06:00:00,46.5,43.7,30.06,NNE,13,0.0,10.0,90,0.00,,,0.00,VWS V15.00,2013-06-18 11:00:00,
2013-06-18 06:02:00,45.4,43.2,30.08,NNE,12,0.0,0.0,92,0.00,,SCT110,0.00,VWS V14.01,2013-06-18 11:02:00,
2013-06-18 06:07:00,45.4,43.2,30.08,NNE,12,0.0,0.0,92,0.00,,SCT110,0.00,VWS V14.01,2013-06-18 11:07:00,
2013-06-18 06:12:00,45.4,43.5,30.08,NNE,12,0.0,0.0,93,0.00,,SCT110,0.00,VWS V14.01,2013-06-18 11:12:00,
2013-06-18 06:15:00,46.2,43.4,30.06,NNE,12,0.0,0.0,90,0.00,,,0.00,VWS V15.00,2013-06-18 11:15:00,
2013-06-18 06:17:00,45.4,43.5,30.07,NNE,12,0.0,0.0,93,0.00,,SCT110,0.00,VWS V14.01,2013-06-18 11:17:00,
2013-06-18 06:22:00,45.5,43.6,30.07,NNE,12,0.0,0.0,93,0.00,,SCT110,0.00,VWS V14.01,2013-06-18 11:22:00,
2013-06-18 06:28:00,45.7,43.8,30.07,NNE,12,0.0,0.0,93,0.00,,SCT110,0.00,VWS V14.01,2013-06-18 11:28:00,
2013-06-18 06:30:00,45.8,43.3,30.06,NNE,12,0.0,5.0,91,0.00,,,0.00,VWS V15.00,2013-06-18 11:30:00,
2013-06-18 06:33:00,45.7,43.8,30.08,NNE,12,0.0,0.0,93,0.00,,SCT110,0.00,VWS V14.01,2013-06-18 11:33:00,
2013-06-18 06:38:00,45.8,43.9,30.08,NNE,12,0.0,0.0,93,0.00,,SCT110,0.00,VWS V14.01,2013-06-18 11:38:00,
2013-06-18 06:43:00,46.1,44.2,30.08,NNE,12,4.0,5.0,93,0.00,,SCT100,0.00,VWS V14.01,2013-06-18 11:43:00,
2013-06-18 06:45:00,45.5,43.3,30.07,NNE,12,0.0,0.0,92,0.00,,,0.00,VWS V15.00,2013-06-18 11:45:00,
2013-06-18 06:48:00,46.2,44.3,30.08,NNE,12,0.0,0.0,93,0.00,,SCT100,0.00,VWS V14.01,2013-06-18 11:48:00,
2013-06-18 06:53:00,46.5,44.6,30.08,NNE,12,0.0,0.0,93,0.00,,SCT100,0.00,VWS V14.01,2013-06-18 11:53:00,
2013-06-18 06:58:00,46.7,44.8,30.08,NNE,12,0.0,0.0,93,0.00,,SCT100,0.00,VWS V14.01,2013-06-18 11:58:00,
2013-06-18 07:00:00,45.4,43.2,30.08,NNE,12,0.0,0.0,92,0.00,,,0.00,VWS V15.00,2013-06-18 12:00:00,
2013-06-18 07:03:00,47.0,45.1,30.08,NNE,13,5.0,6.0,93,0.00,,SCT100,0.00,VWS V14.01,2013-06-18 12:03:00,
2013-06-18 07:08:00,47.3,45.4,30.08,NNE,13,2.0,6.0,93,0.00,,SCT100,0.00,VWS V14.01,2013-06-18 12:08:00,
2013-06-18 07:13:00,47.7,45.8,30.08,NNE,13,3.0,6.0,93,0.00,,SCT100,0.00,VWS V14.01,2013-06-18 12:13:00,
2013-06-18 07:15:00,45.4,43.5,30.07,NNE,12,0.0,0.0,93,0.00,,,0.00,VWS V15.00,2013-06-18 12:15:00,
2013-06-18 07:18:00,48.0,45.8,30.08,NNE,13,4.0,4.0,92,0.00,,SCT100,0.00,VWS V14.01,2013-06-18 12:18:00,
2013-06-18 07:23:00,48.5,46.3,30.08,NNE,16,0.0,7.0,92,0.00,,SCT100,0.00,VWS V14.01,2013-06-18 12:23:00,
2013-06-18 07:28:00,48.8,46.3,30.08,NNE,16,0.0,7.0,91,0.00,,SCT100,0.00,VWS V14.01,2013-06-18 12:28:00,
2013-06-18 07:30:00,45.7,43.8,30.08,NNE,12,0.0,0.0,93,0.00,,,0.00,VWS V15.00,2013-06-18 12:30:00,
2013-06-18 07:33:00,49.2,46.4,30.08,NNE,17,5.0,6.0,90,0.00,,SCT100,0.00,VWS V14.01,2013-06-18 12:33:00,
2013-06-18 07:38:00,49.6,46.5,30.08,NNE,22,0.0,8.0,89,0.00,,SCT100,0.00,VWS V14.01,2013-06-18 12:38:00,
2013-06-18 07:43:00,50.1,46.7,30.08,NNE,26,3.0,8.0,88,0.00,,SCT100,0.00,VWS V14.01,2013-06-18 12:43:00,
2013-06-18 07:45:00,46.2,44.3,30.08,NNE,12,0.0,5.0,93,0.00,,,0.00,VWS V15.00,2013-06-18 12:45:00,
2013-06-18 07:48:00,50.5,46.8,30.08,NNE,27,0.0,3.0,87,0.00,,SCT100,0.00,VWS V14.01,2013-06-18 12:48:00,
2013-06-18 07:53:00,51.1,47.1,30.08,NNE,30,3.0,8.0,86,0.00,,SCT100,0.00,VWS V14.01,2013-06-18 12:53:00,
2013-06-18 07:58:00,51.6,46.9,30.08,NNE,30,0.0,8.0,84,0.00,,SCT100,0.00,VWS V14.01,2013-06-18 12:58:00,
2013-06-18 08:00:00,47.0,45.1,30.08,NNE,12,0.0,0.0,93,0.00,,,0.00,VWS V15.00,2013-06-18 13:00:00,
2013-06-18 08:03:00,51.9,46.6,30.08,NNE,30,1.0,4.0,82,0.00,,SCT100,0.00,VWS V14.01,2013-06-18 13:03:00,
2013-06-18 08:08:00,52.5,47.2,30.08,NNE,33,4.0,7.0,82,0.00,,SCT100,0.00,VWS V14.01,2013-06-18 13:08:00,
2013-06-18 08:13:00,52.8,46.8,30.08,NNE,24,5.0,8.0,80,0.00,,SCT100,0.00,VWS V14.01,2013-06-18 13:13:00,
2013-06-18 08:15:00,48.0,45.8,30.08,NNE,13,0.0,6.0,92,0.00,,,0.00,VWS V15.00,2013-06-18 13:15:00,
2013-06-18 08:18:00,53.2,46.5,30.08,NNE,21,7.0,7.0,78,0.00,,SCT100,0.00,VWS V14.01,2013-06-18 13:18:00,
2013-06-18 08:23:00,53.6,46.2,30.08,NNE,24,4.0,8.0,76,0.00,,SCT100,0.00,VWS V14.01,2013-06-18 13:23:00,
2013-06-18 08:28:00,54.1,46.4,30.08,NNE,29,0.0,8.0,75,0.00,,SCT100,0.00,VWS V14.01,2013-06-18 13:28:00,
2013-06-18 08:30:00,49.2,46.4,30.08,NNE,16,5.0,7.0,90,0.00,,,0.00,VWS V15.00,2013-06-18 13:30:00,
2013-06-18 08:33:00,54.5,46.8,30.08,NE,42,9.0,9.0,75,0.00,,SCT100,0.00,VWS V14.01,2013-06-18 13:33:00,
2013-06-18 08:38:00,55.0,47.6,30.08,NNE,18,3.0,9.0,76,0.00,,SCT100,0.00,VWS V14.01,2013-06-18 13:38:00,
2013-06-18 08:43:00,55.3,47.5,30.08,North,11,7.0,10.0,75,0.00,,CLR,0.00,VWS V14.01,2013-06-18 13:43:00,
2013-06-18 08:45:00,50.5,46.8,30.08,NNE,27,3.0,8.0,87,0.00,,,0.00,VWS V15.00,2013-06-18 13:45:00,
2013-06-18 08:48:00,55.6,47.5,30.08,NNE,16,8.0,8.0,74,0.00,,CLR,0.00,VWS V14.01,2013-06-18 13:48:00,
2013-06-18 08:53:00,55.9,47.4,30.08,NE,35,7.0,9.0,73,0.00,,CLR,0.00,VWS V14.01,2013-06-18 13:53:00,
2013-06-18 08:58:00,56.3,47.4,30.08,NNE,33,1.0,9.0,72,0.00,,CLR,0.00,VWS V14.01,2013-06-18 13:58:00,
2013-06-18 09:00:00,51.9,46.6,30.08,NNE,30,4.0,8.0,82,0.00,,,0.00,VWS V15.00,2013-06-18 14:00:00,
2013-06-18 09:03:00,56.7,47.4,30.08,NNE,23,2.0,8.0,71,0.00,,SCT100,0.00,VWS V14.01,2013-06-18 14:03:00,
2013-06-18 09:08:00,57.3,48.0,30.08,NNE,14,0.0,8.0,71,0.00,,SCT100,0.00,VWS V14.01,2013-06-18 14:08:00,
2013-06-18 09:14:00,58.3,48.2,30.08,NNE,21,0.0,8.0,69,0.00,,SCT100,0.00,VWS V14.01,2013-06-18 14:14:00,
2013-06-18 09:15:00,53.2,46.5,30.08,NNE,21,7.0,8.0,78,0.00,,,0.00,VWS V15.00,2013-06-18 14:15:00,
2013-06-18 09:19:00,58.7,48.2,30.09,NNE,14,0.0,3.0,68,0.00,,SCT100,0.00,VWS V14.01,2013-06-18 14:19:00,
2013-06-18 09:24:00,59.2,49.0,30.09,NE,43,7.0,10.0,69,0.00,,SCT100,0.00,VWS V14.01,2013-06-18 14:24:00,
2013-06-18 09:29:00,59.5,48.5,30.09,NE,47,0.0,13.0,67,0.00,,SCT100,0.00,VWS V14.01,2013-06-18 14:29:00,
2013-06-18 09:30:00,54.4,46.7,30.08,NE,39,3.0,10.0,75,0.00,,,0.00,VWS V15.00,2013-06-18 14:30:00,
2013-06-18 09:34:00,59.8,49.2,30.09,NE,35,8.0,10.0,68,0.00,,SCT100,0.00,VWS V14.01,2013-06-18 14:34:00,
2013-06-18 09:39:00,60.2,48.4,30.09,NE,37,4.0,10.0,65,0.00,,SCT100,0.00,VWS V14.01,2013-06-18 14:39:00,
2013-06-18 09:44:00,60.9,50.3,30.09,NE,37,0.0,10.0,68,0.00,,CLR,0.00,VWS V14.01,2013-06-18 14:44:00,
2013-06-18 09:45:00,55.6,47.5,30.08,North,7,6.0,10.0,74,0.00,,,0.00,VWS V15.00,2013-06-18 14:45:00,
2013-06-18 09:49:00,61.3,49.9,30.09,ENE,66,1.0,5.0,66,0.00,,CLR,0.00,VWS V14.01,2013-06-18 14:49:00,
2013-06-18 09:54:00,61.6,49.3,30.09,ENE,63,4.0,8.0,64,0.00,,CLR,0.00,VWS V14.01,2013-06-18 14:54:00,
2013-06-18 09:59:00,62.0,50.5,30.09,NE,53,3.0,8.0,66,0.00,,CLR,0.00,VWS V14.01,2013-06-18 14:59:00,
2013-06-18 10:00:00,56.7,47.4,30.08,NNE,21,8.0,10.0,71,0.00,,,0.00,VWS V15.00,2013-06-18 15:00:00,
2013-06-18 10:04:00,62.1,50.2,30.08,NE,45,0.0,6.0,65,0.00,,SCT024,0.00,VWS V14.01,2013-06-18 15:04:00,
2013-06-18 10:09:00,62.4,50.5,30.08,NE,42,4.0,9.0,65,0.00,,SCT024,0.00,VWS V14.01,2013-06-18 15:09:00,
2013-06-18 10:14:00,62.7,51.2,30.08,ENE,61,7.0,11.0,66,0.00,,SCT024,0.00,VWS V14.01,2013-06-18 15:14:00,
2013-06-18 10:15:00,58.6,48.5,30.09,NNE,14,3.0,8.0,69,0.00,,,0.00,VWS V15.00,2013-06-18 15:15:00,
2013-06-18 10:19:00,63.1,51.6,30.08,ENE,65,4.0,5.0,66,0.00,,SCT024,0.00,VWS V14.01,2013-06-18 15:19:00,
2013-06-18 10:24:00,63.2,51.7,30.08,ENE,67,7.0,9.0,66,0.00,,SCT024,0.00,VWS V14.01,2013-06-18 15:24:00,
2013-06-18 10:29:00,63.5,51.5,30.08,NNE,33,0.0,9.0,65,0.00,,SCT024,0.00,VWS V14.01,2013-06-18 15:29:00,
2013-06-18 10:30:00,59.6,48.6,30.09,NNE,12,10.0,13.0,67,0.00,,,0.00,VWS V15.00,2013-06-18 15:30:00,
2013-06-18 10:34:00,63.5,52.0,30.08,NE,47,6.0,10.0,66,0.00,,BKN029,0.00,VWS V14.01,2013-06-18 15:34:00,
2013-06-18 10:39:00,63.7,52.1,30.08,ENE,61,0.0,12.0,66,0.00,,BKN029,0.00,VWS V14.01,2013-06-18 15:39:00,
2013-06-18 10:44:00,63.9,51.9,30.08,ENE,64,3.0,12.0,65,0.00,,BKN029,0.00,VWS V14.01,2013-06-18 15:44:00,
2013-06-18 10:45:00,61.3,49.9,30.09,ENE,66,3.0,10.0,66,0.00,,,0.00,VWS V15.00,2013-06-18 15:45:00,
2013-06-18 10:49:00,64.0,52.0,30.09,NE,51,5.0,7.0,65,0.00,,BKN029,0.00,VWS V14.01,2013-06-18 15:49:00,
2013-06-18 10:54:00,64.2,52.2,30.09,NE,44,1.0,8.0,65,0.00,,BKN029,0.00,VWS V14.01,2013-06-18 15:54:00,
2013-06-18 10:59:00,64.5,52.1,30.09,NE,56,7.0,8.0,64,0.00,,BKN029,0.00,VWS V14.01,2013-06-18 15:59:00,
2013-06-18 11:00:00,62.1,50.2,30.08,NE,42,5.0,8.0,65,0.00,,,0.00,VWS V15.00,2013-06-18 16:00:00,
2013-06-18 11:04:00,64.5,52.1,30.09,NE,45,0.0,0.0,64,0.00,,BKN032,0.00,VWS V14.01,2013-06-18 16:04:00,
2013-06-18 11:09:00,65.0,52.5,30.09,NE,43,0.0,6.0,64,0.00,,BKN032,0.00,VWS V14.01,2013-06-18 16:09:00,
2013-06-18 11:14:00,65.3,52.8,30.09,NE,44,0.0,6.0,64,0.00,,BKN032,0.00,VWS V14.01,2013-06-18 16:14:00,
2013-06-18 11:15:00,62.9,51.0,30.08,ENE,66,3.0,11.0,65,0.00,,,0.00,VWS V15.00,2013-06-18 16:15:00,
2013-06-18 11:19:00,65.8,52.9,30.09,NE,44,0.0,0.0,63,0.00,,BKN032,0.00,VWS V14.01,2013-06-18 16:19:00,
2013-06-18 11:25:00,66.9,53.5,30.09,East,79,8.0,13.0,62,0.00,,BKN032,0.00,VWS V14.01,2013-06-18 16:25:00,
2013-06-18 11:30:00,66.9,53.5,30.09,ENE,75,7.0,13.0,62,0.00,,BKN032,0.00,VWS V14.01,2013-06-18 16:30:00,
2013-06-18 11:35:00,66.9,53.0,30.08,ENE,75,3.0,5.0,61,0.00,,BKN032,0.00,VWS V14.01,2013-06-18 16:35:00,
2013-06-18 11:40:00,67.4,53.9,30.08,ENE,75,0.0,5.0,62,0.00,,BKN032,0.00,VWS V14.01,2013-06-18 16:40:00,
2013-06-18 11:45:00,67.6,53.7,30.08,ESE,118,6.0,8.0,61,0.00,,OVC030,0.00,VWS V14.01,2013-06-18 16:45:00,
2013-06-18 11:50:00,67.9,54.4,30.08,ESE,120,2.0,7.0,62,0.00,,OVC030,0.00,VWS V14.01,2013-06-18 16:50:00,
2013-06-18 11:55:00,67.9,54.8,30.08,SE,125,3.0,10.0,63,0.00,,OVC030,0.00,VWS V14.01,2013-06-18 16:55:00,
2013-06-18 12:00:00,68.1,54.6,30.08,ESE,108,5.0,10.0,62,0.00,,OVC030,0.00,VWS V14.01,2013-06-18 17:00:00,
2013-06-18 12:05:00,67.9,54.8,30.08,ESE,111,3.0,6.0,63,0.00,,BKN032,0.00,VWS V14.01,2013-06-18 17:05:00,
2013-06-18 12:10:00,67.6,55.8,30.08,ESE,116,0.0,7.0,66,0.00,,BKN032,0.00,VWS V14.01,2013-06-18 17:10:00,
2013-06-18 12:15:00,68.3,55.2,30.08,SE,140,5.0,11.0,63,0.00,,BKN032,0.00,VWS V14.01,2013-06-18 17:15:00,
2013-06-18 12:20:00,68.6,55.1,30.08,SE,130,6.0,12.0,62,0.00,,BKN032,0.00,VWS V14.01,2013-06-18 17:20:00,
2013-06-18 12:25:00,68.6,55.1,30.08,East,81,10.0,12.0,62,0.00,,BKN032,0.00,VWS V14.01,2013-06-18 17:25:00,
2013-06-18 12:30:00,68.6,54.6,30.08,ENE,71,4.0,12.0,61,0.00,,BKN032,0.00,VWS V14.01,2013-06-18 17:30:00,
2013-06-18 12:35:00,69.3,55.7,30.08,ENE,71,0.0,3.0,62,0.00,,BKN032,0.00,VWS V14.01,2013-06-18 17:35:00,
2013-06-18 12:40:00,69.3,54.4,30.08,East,88,0.0,6.0,59,0.00,,SCT030,0.00,VWS V14.01,2013-06-18 17:40:00,
2013-06-18 12:45:00,69.1,55.5,30.08,East,87,0.0,6.0,62,0.00,,SCT030,0.00,VWS V14.01,2013-06-18 17:45:00,
2013-06-18 12:50:00,69.1,56.0,30.09,East,87,0.0,0.0,63,0.00,,SCT030,0.00,VWS V14.01,2013-06-18 17:50:00,
2013-06-18 12:55:00,69.1,54.7,30.09,East,87,0.0,0.0,60,0.00,,SCT030,0.00,VWS V14.01,2013-06-18 17:55:00,
2013-06-18 13:00:00,69.9,56.3,30.09,East,88,0.0,0.0,62,0.00,,SCT030,0.00,VWS V14.01,2013-06-18 18:00:00,
2013-06-18 13:05:00,71.3,56.2,30.08,East,90,4.0,4.0,59,0.00,,OVC032,0.00,VWS V14.01,2013-06-18 18:05:00,
2013-06-18 13:10:00,72.3,56.2,30.08,SE,144,3.0,8.0,57,0.00,,OVC032,0.00,VWS V14.01,2013-06-18 18:10:00,
2013-06-18 13:15:00,72.3,55.2,30.08,SE,143,1.0,8.0,55,0.00,,OVC032,0.00,VWS V14.01,2013-06-18 18:15:00,
2013-06-18 13:20:00,71.3,55.8,30.08,SE,143,0.0,6.0,58,0.00,,OVC032,0.00,VWS V14.01,2013-06-18 18:20:00,
2013-06-18 13:25:00,70.6,55.1,30.08,East,99,4.0,7.0,58,0.00,,OVC032,0.00,VWS V14.01,2013-06-18 18:25:00,
2013-06-18 13:30:00,72.1,54.0,30.08,East,97,0.0,7.0,53,0.00,,OVC032,0.00,VWS V14.01,2013-06-18 18:30:00,
2013-06-18 13:35:00,71.5,55.5,30.07,East,93,6.0,6.0,57,0.00,,BKN050,0.00,VWS V14.01,2013-06-18 18:35:00,
2013-06-18 13:40:00,70.8,54.3,30.07,ESE,110,6.0,8.0,56,0.00,,BKN050,0.00,VWS V14.01,2013-06-18 18:40:00,
2013-06-18 13:45:00,71.3,54.3,30.07,ESE,112,2.0,8.0,55,0.00,,BKN050,0.00,VWS V14.01,2013-06-18 18:45:00,
2013-06-18 13:50:00,73.2,55.6,30.07,ESE,116,3.0,7.0,54,0.00,,BKN050,0.00,VWS V14.01,2013-06-18 18:50:00,
2013-06-18 13:56:00,74.4,55.1,30.07,SSE,148,2.0,8.0,51,0.00,,BKN050,0.00,VWS V14.01,2013-06-18 18:56:00,
2013-06-18 14:00:00,70.3,54.8,30.08,East,88,0.0,0.0,58,0.00,,,0.00,VWS V15.00,2013-06-18 19:00:00,
2013-06-18 14:01:00,74.6,54.8,30.07,ESE,119,0.0,8.0,50,0.00,,BKN050,0.00,VWS V14.01,2013-06-18 19:01:00,
2013-06-18 14:06:00,73.9,55.2,30.06,ESE,116,3.0,6.0,52,0.00,,SCT050,0.00,VWS V14.01,2013-06-18 19:06:00,
2013-06-18 14:11:00,71.8,53.8,30.06,SE,125,6.0,7.0,53,0.00,,SCT050,0.00,VWS V14.01,2013-06-18 19:11:00,
2013-06-18 14:15:00,72.0,56.0,30.08,SE,143,3.0,8.0,57,0.00,,,0.00,VWS V15.00,2013-06-18 19:15:00,
2013-06-18 14:16:00,71.6,53.1,30.06,SE,128,5.0,7.0,52,0.00,,SCT050,0.00,VWS V14.01,2013-06-18 19:16:00,
2013-06-18 14:21:00,73.3,54.1,30.06,SE,128,2.0,4.0,51,0.00,,SCT050,0.00,VWS V14.01,2013-06-18 19:21:00,
2013-06-18 14:26:00,74.7,55.4,30.06,SE,137,6.0,7.0,51,0.00,,SCT050,0.00,VWS V14.01,2013-06-18 19:26:00,
2013-06-18 14:30:00,72.0,54.0,30.07,East,97,0.0,7.0,53,0.00,,,0.00,VWS V15.00,2013-06-18 19:30:00,
2013-06-18 14:31:00,75.4,54.4,30.06,ESE,113,3.0,9.0,48,0.00,,SCT050,0.00,VWS V14.01,2013-06-18 19:31:00,
2013-06-18 14:36:00,76.3,56.3,30.06,ENE,58,3.0,7.0,50,0.00,,SCT060,0.00,VWS V14.01,2013-06-18 19:36:00,
2013-06-18 14:41:00,75.1,54.7,30.06,NE,38,8.0,10.0,49,0.00,,SCT060,0.00,VWS V14.01,2013-06-18 19:41:00,
2013-06-18 14:45:00,72.1,56.5,30.07,ESE,110,3.0,8.0,58,0.00,,,0.00,VWS V15.00,2013-06-18 19:45:00,
2013-06-18 14:46:00,75.3,53.7,30.06,NNE,31,1.0,10.0,47,0.00,,SCT060,0.00,VWS V14.01,2013-06-18 19:46:00,
2013-06-18 14:51:00,75.6,55.7,30.05,ENE,66,10.0,10.0,50,0.00,,SCT060,0.00,VWS V14.01,2013-06-18 19:51:00,
2013-06-18 14:56:00,73.9,53.0,30.05,ENE,69,3.0,10.0,48,0.00,,SCT060,0.00,VWS V14.01,2013-06-18 19:56:00,
2013-06-18 15:00:00,74.4,55.1,30.06,ESE,116,5.0,8.0,51,0.00,,,0.00,VWS V15.00,2013-06-18 20:00:00,
2013-06-18 15:01:00,74.2,52.7,30.05,ENE,69,0.0,10.0,47,0.00,,SCT060,0.00,VWS V14.01,2013-06-18 20:01:00,
2013-06-18 15:06:00,75.4,54.4,30.05,NE,49,5.0,6.0,48,0.00,,CLR,0.00,VWS V14.01,2013-06-18 20:06:00,
2013-06-18 15:11:00,76.3,54.0,30.05,ENE,74,6.0,9.0,46,0.00,,CLR,0.00,VWS V14.01,2013-06-18 20:11:00,
2013-06-18 15:15:00,71.8,53.2,30.06,SE,128,3.0,7.0,52,0.00,,,0.00,VWS V15.00,2013-06-18 20:15:00,
2013-06-18 15:16:00,74.4,53.5,30.05,East,98,2.0,10.0,48,0.00,,CLR,0.00,VWS V14.01,2013-06-18 20:16:00,
2013-06-18 15:21:00,73.3,55.7,30.05,East,94,2.0,5.0,54,0.00,,CLR,0.00,VWS V14.01,2013-06-18 20:21:00,
2013-06-18 15:26:00,74.2,52.7,30.05,East,80,2.0,6.0,47,0.00,,CLR,0.00,VWS V14.01,2013-06-18 20:26:00,
2013-06-18 15:30:00,75.8,54.2,30.06,ESE,113,0.0,9.0,47,0.00,,,0.00,VWS V15.00,2013-06-18 20:30:00,
2013-06-18 15:31:00,75.8,56.4,30.05,ENE,75,1.0,6.0,51,0.00,,CLR,0.00,VWS V14.01,2013-06-18 20:31:00,
2013-06-18 15:36:00,76.5,54.8,30.04,SE,128,3.0,10.0,47,0.00,,CLR,0.00,VWS V14.01,2013-06-18 20:36:00,
2013-06-18 15:41:00,76.1,53.2,30.04,East,89,6.0,10.0,45,0.00,,SCT049,0.00,VWS V14.01,2013-06-18 20:41:00,
2013-06-18 15:45:00,75.3,53.1,30.05,NNE,31,1.0,10.0,46,0.00,,,0.00,VWS V15.00,2013-06-18 20:45:00,
2013-06-18 15:46:00,73.9,53.6,30.04,East,89,3.0,10.0,49,0.00,,SCT049,0.00,VWS V14.01,2013-06-18 20:46:00,
2013-06-18 15:51:00,73.9,53.6,30.04,East,89,1.0,3.0,49,0.00,,SCT049,0.00,VWS V14.01,2013-06-18 20:51:00,
2013-06-18 15:56:00,73.9,53.6,30.04,ESE,111,4.0,10.0,49,0.00,,SCT049,0.00,VWS V14.01,2013-06-18 20:56:00,
2013-06-18 16:00:00,74.6,54.2,30.05,ENE,69,1.0,10.0,49,0.00,,,0.00,VWS V15.00,2013-06-18 21:00:00,
2013-06-18 16:01:00,74.2,53.8,30.04,ESE,111,5.0,10.0,49,0.00,,SCT049,0.00,VWS V14.01,2013-06-18 21:01:00,
2013-06-18 16:06:00,74.7,53.7,30.04,SE,135,6.0,11.0,48,0.00,,SCT049,0.00,VWS V14.01,2013-06-18 21:06:00,
2013-06-18 16:11:00,74.9,51.5,30.04,SE,135,3.0,11.0,44,0.00,,SCT049,0.00,VWS V14.01,2013-06-18 21:11:00,
2013-06-18 16:15:00,74.2,53.8,30.05,East,96,4.0,10.0,49,0.00,,,0.00,VWS V15.00,2013-06-18 21:15:00,
2013-06-18 16:16:00,76.0,52.5,30.04,SE,140,2.0,11.0,44,0.00,,SCT049,0.00,VWS V14.01,2013-06-18 21:16:00,
2013-06-18 16:21:00,75.8,53.0,30.03,ESE,117,6.0,9.0,45,0.00,,SCT049,0.00,VWS V14.01,2013-06-18 21:21:00,
2013-06-18 16:26:00,74.6,51.9,30.03,ESE,116,1.0,9.0,45,0.00,,SCT049,0.00,VWS V14.01,2013-06-18 21:26:00,
2013-06-18 16:30:00,76.1,55.6,30.04,ENE,75,5.0,6.0,49,0.00,,,0.00,VWS V15.00,2013-06-18 21:30:00,
2013-06-18 16:31:00,74.2,51.5,30.03,ESE,116,6.0,9.0,45,0.00,,SCT049,0.00,VWS V14.01,2013-06-18 21:31:00,
2013-06-18 16:37:00,74.6,50.7,30.03,ESE,121,3.0,10.0,43,0.00,,SCT049,0.00,VWS V14.01,2013-06-18 21:37:00,
2013-06-18 16:42:00,75.6,52.2,30.03,SE,131,8.0,10.0,44,0.00,,SCT049,0.00,VWS V14.01,2013-06-18 21:42:00,
2013-06-18 16:45:00,73.7,53.9,30.04,East,89,3.0,10.0,50,0.00,,,0.00,VWS V15.00,2013-06-18 21:45:00,
2013-06-18 16:47:00,75.8,53.6,30.02,ESE,109,9.0,11.0,46,0.00,,SCT049,0.00,VWS V14.01,2013-06-18 21:47:00,
2013-06-18 16:52:00,76.0,54.9,30.02,ESE,114,7.0,12.0,48,0.00,,SCT049,0.00,VWS V14.01,2013-06-18 21:52:00,
2013-06-18 16:57:00,76.0,53.2,30.02,SSE,149,7.0,12.0,45,0.00,,SCT049,0.00,VWS V14.01,2013-06-18 21:57:00,
2013-06-18 17:00:00,74.4,53.5,30.04,SE,132,10.0,10.0,48,0.00,,,0.00,VWS V15.00,2013-06-18 22:00:00,
2013-06-18 17:02:00,75.3,53.1,30.02,ESE,112,4.0,12.0,46,0.00,,SCT049,0.00,VWS V14.01,2013-06-18 22:02:00,
2013-06-18 17:07:00,73.9,52.4,30.02,East,99,1.0,9.0,47,0.00,,SCT049,0.00,VWS V14.01,2013-06-18 22:07:00,
2013-06-18 17:12:00,72.7,53.0,30.02,East,99,3.0,9.0,50,0.00,,SCT049,0.00,VWS V14.01,2013-06-18 22:12:00,
2013-06-18 17:15:00,76.0,52.5,30.03,SE,136,3.0,11.0,44,0.00,,,0.00,VWS V15.00,2013-06-18 22:15:00,
2013-06-18 17:17:00,71.8,53.2,30.03,East,98,5.0,9.0,52,0.00,,SCT049,0.00,VWS V14.01,2013-06-18 22:17:00,
2013-06-18 17:22:00,72.0,54.0,30.03,East,97,6.0,8.0,53,0.00,,SCT049,0.00,VWS V14.01,2013-06-18 22:22:00,
2013-06-18 17:27:00,72.5,53.4,30.03,East,97,3.0,9.0,51,0.00,,SCT049,0.00,VWS V14.01,2013-06-18 22:27:00,
2013-06-18 17:30:00,74.2,53.3,30.03,ESE,116,3.0,9.0,48,0.00,,,0.00,VWS V15.00,2013-06-18 22:30:00,
2013-06-18 17:32:00,72.3,52.6,30.02,East,97,1.0,9.0,50,0.00,,BKN050,0.00,VWS V14.01,2013-06-18 22:32:00,
2013-06-18 17:37:00,72.0,53.4,30.02,ESE,106,5.0,6.0,52,0.00,,BKN050,0.00,VWS V14.01,2013-06-18 22:37:00,
2013-06-18 17:42:00,71.8,52.7,30.02,SE,140,7.0,9.0,51,0.00,,BKN050,0.00,VWS V14.01,2013-06-18 22:42:00,
2013-06-18 17:45:00,75.8,53.6,30.02,ESE,117,6.0,11.0,46,0.00,,,0.00,VWS V15.00,2013-06-18 22:45:00,
2013-06-18 17:47:00,72.3,51.5,30.02,SSE,151,6.0,11.0,48,0.00,,BKN050,0.00,VWS V14.01,2013-06-18 22:47:00,
2013-06-18 17:52:00,72.8,52.5,30.02,SSE,151,5.0,9.0,49,0.00,,BKN050,0.00,VWS V14.01,2013-06-18 22:52:00,
2013-06-18 17:57:00,73.2,51.8,30.02,SSE,151,4.0,9.0,47,0.00,,BKN050,0.00,VWS V14.01,2013-06-18 22:57:00,
2013-06-18 18:00:00,75.3,53.7,30.02,ESE,107,7.0,12.0,47,0.00,,,0.00,VWS V15.00,2013-06-18 23:00:00,
2013-06-18 18:02:00,73.5,52.1,30.01,SSE,152,0.0,9.0,47,0.00,,SCT050,0.00,VWS V14.01,2013-06-18 23:02:00,
2013-06-18 18:07:00,73.5,52.1,30.01,SSE,152,0.0,0.0,47,0.00,,SCT050,0.00,VWS V14.01,2013-06-18 23:07:00,
2013-06-18 18:12:00,73.3,51.3,30.01,SSE,156,4.0,9.0,46,0.00,,SCT050,0.00,VWS V14.01,2013-06-18 23:12:00,
2013-06-18 18:15:00,71.8,53.2,30.03,East,97,4.0,9.0,52,0.00,,,0.00,VWS V15.00,2013-06-18 23:15:00,
2013-06-18 18:17:00,73.2,51.8,30.01,SSE,156,0.0,9.0,47,0.00,,SCT050,0.00,VWS V14.01,2013-06-18 23:17:00,
2013-06-18 18:22:00,73.2,51.8,30.01,SSE,156,1.0,3.0,47,0.00,,SCT050,0.00,VWS V14.01,2013-06-18 23:22:00,
2013-06-18 18:27:00,73.2,52.9,30.01,SE,145,6.0,7.0,49,0.00,,SCT050,0.00,VWS V14.01,2013-06-18 23:27:00,
2013-06-18 18:30:00,72.3,52.6,30.02,East,97,1.0,9.0,50,0.00,,,0.00,VWS V15.00,2013-06-18 23:30:00,
2013-06-18 18:32:00,73.0,51.0,30.01,SSE,155,6.0,15.0,46,0.00,,SCT050,0.00,VWS V14.01,2013-06-18 23:32:00,
2013-06-18 18:37:00,73.0,52.7,30.01,ESE,116,3.0,11.0,49,0.00,,SCT050,0.00,VWS V14.01,2013-06-18 23:37:00,
2013-06-18 18:42:00,73.0,52.7,30.01,ESE,117,5.0,11.0,49,0.00,,CLR,0.00,VWS V14.01,2013-06-18 23:42:00,
2013-06-18 18:45:00,72.5,51.7,30.02,SSE,151,7.0,11.0,48,0.00,,,0.00,VWS V15.00,2013-06-18 23:45:00,
2013-06-18 18:47:00,72.7,53.0,30.01,ESE,113,1.0,11.0,50,0.00,,CLR,0.00,VWS V14.01,2013-06-18 23:47:00,
2013-06-18 18:52:00,72.5,51.7,30.01,ESE,116,2.0,7.0,48,0.00,,CLR,0.00,VWS V14.01,2013-06-18 23:52:00,
2013-06-18 18:57:00,72.1,51.9,30.01,ESE,116,1.0,7.0,49,0.00,,CLR,0.00,VWS V14.01,2013-06-18 23:57:00,
2013-06-18 19:00:00,73.5,52.1,30.01,SSE,152,0.0,9.0,47,0.00,,,0.00,VWS V15.00,2013-06-19 00:00:00,
2013-06-18 19:02:00,71.6,52.5,30.01,ESE,116,4.0,7.0,51,0.00,,CLR,0.00,VWS V14.01,2013-06-19 00:02:00,
2013-06-18 19:07:00,70.8,53.3,30.01,ESE,116,3.0,5.0,54,0.00,,CLR,0.00,VWS V14.01,2013-06-19 00:07:00,
2013-06-18 19:12:00,69.9,53.0,30.01,ESE,116,1.0,5.0,55,0.00,,BKN055,0.00,VWS V14.01,2013-06-19 00:12:00,
2013-06-18 19:15:00,73.2,51.8,30.01,SSE,156,0.0,9.0,47,0.00,,,0.00,VWS V15.00,2013-06-19 00:15:00,
2013-06-18 19:17:00,69.6,52.7,30.01,ESE,115,6.0,6.0,55,0.00,,BKN055,0.00,VWS V14.01,2013-06-19 00:17:00,
2013-06-18 19:23:00,69.6,53.7,30.01,ESE,116,4.0,7.0,57,0.00,,BKN055,0.00,VWS V14.01,2013-06-19 00:23:00,
2013-06-18 19:28:00,69.8,52.4,30.01,ESE,120,7.0,10.0,54,0.00,,BKN055,0.00,VWS V14.01,2013-06-19 00:28:00,
2013-06-18 19:30:00,73.0,51.0,30.01,SSE,155,5.0,15.0,46,0.00,,,0.00,VWS V15.00,2013-06-19 00:30:00,
2013-06-18 19:33:00,70.1,53.2,30.01,SE,127,8.0,8.0,55,0.00,,BKN055,0.00,VWS V14.01,2013-06-19 00:33:00,
2013-06-18 19:38:00,70.3,52.4,30.01,SE,137,6.0,10.0,53,0.00,,BKN055,0.00,VWS V14.01,2013-06-19 00:38:00,
2013-06-18 19:43:00,70.1,53.2,30.01,SE,137,5.0,10.0,55,0.00,,SCT055,0.00,VWS V14.01,2013-06-19 00:43:00,
2013-06-18 19:45:00,72.7,53.0,30.01,ESE,113,1.0,11.0,50,0.00,,,0.00,VWS V15.00,2013-06-19 00:45:00,
2013-06-18 19:48:00,69.8,52.4,30.01,SE,137,3.0,3.0,54,0.00,,SCT055,0.00,VWS V14.01,2013-06-19 00:48:00,
2013-06-18 19:53:00,69.4,53.0,30.01,SE,137,2.0,5.0,56,0.00,,SCT055,0.00,VWS V14.01,2013-06-19 00:53:00,
2013-06-18 19:58:00,69.3,53.9,30.01,SE,137,2.0,5.0,58,0.00,,SCT055,0.00,VWS V14.01,2013-06-19 00:58:00,
2013-06-18 20:00:00,71.6,52.5,30.01,ESE,116,4.0,7.0,51,0.00,,,0.00,VWS V15.00,2013-06-19 01:00:00,
2013-06-18 20:03:00,68.8,53.4,30.01,SE,137,1.0,1.0,58,0.00,,CLR,0.00,VWS V14.01,2013-06-19 01:03:00,
2013-06-18 20:08:00,68.4,53.1,30.01,SE,137,2.0,3.0,58,0.00,,CLR,0.00,VWS V14.01,2013-06-19 01:08:00,
2013-06-18 20:13:00,67.9,52.6,30.01,SE,137,2.0,4.0,58,0.00,,CLR,0.00,VWS V14.01,2013-06-19 01:13:00,
2013-06-18 20:15:00,69.6,52.7,30.01,ESE,116,6.0,6.0,55,0.00,,,0.00,VWS V15.00,2013-06-19 01:15:00,
2013-06-18 20:18:00,67.6,52.8,30.01,SE,137,2.0,2.0,59,0.00,,CLR,0.00,VWS V14.01,2013-06-19 01:18:00,
2013-06-18 20:23:00,67.3,52.5,30.01,SE,137,1.0,3.0,59,0.00,,CLR,0.00,VWS V14.01,2013-06-19 01:23:00,
2013-06-18 20:28:00,66.9,51.7,30.01,SE,137,2.0,3.0,58,0.00,,CLR,0.00,VWS V14.01,2013-06-19 01:28:00,
2013-06-18 20:30:00,70.1,53.2,30.01,SE,125,5.0,10.0,55,0.00,,,0.00,VWS V15.00,2013-06-19 01:30:00,
2013-06-18 20:33:00,66.6,52.3,30.01,SE,137,2.0,3.0,60,0.00,,CLR,0.00,VWS V14.01,2013-06-19 01:33:00,
2013-06-18 20:38:00,66.1,52.7,30.01,SE,137,4.0,4.0,62,0.00,,CLR,0.00,VWS V14.01,2013-06-19 01:38:00,
2013-06-18 20:43:00,65.8,52.9,30.01,SE,137,2.0,4.0,63,0.00,,CLR,0.00,VWS V14.01,2013-06-19 01:43:00,
2013-06-18 20:45:00,69.8,52.4,30.01,SE,137,3.0,10.0,54,0.00,,,0.00,VWS V15.00,2013-06-19 01:45:00,
2013-06-18 20:48:00,65.5,52.6,30.01,SE,137,4.0,4.0,63,0.00,,CLR,0.00,VWS V14.01,2013-06-19 01:48:00,
2013-06-18 20:53:00,65.0,53.0,30.01,SE,137,4.0,5.0,65,0.00,,CLR,0.00,VWS V14.01,2013-06-19 01:53:00,
2013-06-18 20:58:00,64.5,52.9,30.01,SE,137,4.0,5.0,66,0.00,,CLR,0.00,VWS V14.01,2013-06-19 01:58:00,
2013-06-18 21:00:00,68.9,53.5,30.01,SE,137,1.0,5.0,58,0.00,,,0.00,VWS V15.00,2013-06-19 02:00:00,
2013-06-18 21:03:00,64.0,52.8,30.01,SE,137,4.0,4.0,67,0.00,,CLR,0.00,VWS V14.01,2013-06-19 02:03:00,
2013-06-18 21:08:00,63.7,53.3,30.01,SE,137,4.0,6.0,69,0.00,,CLR,0.00,VWS V14.01,2013-06-19 02:08:00,
2013-06-18 21:13:00,63.1,53.2,30.01,SE,137,5.0,6.0,70,0.00,,CLR,0.00,VWS V14.01,2013-06-19 02:13:00,
2013-06-18 21:15:00,67.6,52.3,30.01,SE,137,1.0,4.0,58,0.00,,,0.00,VWS V15.00,2013-06-19 02:15:00,
2013-06-18 21:18:00,62.6,53.5,30.01,SE,137,4.0,5.0,72,0.00,,CLR,0.00,VWS V14.01,2013-06-19 02:18:00,
2013-06-18 21:23:00,62.1,53.0,30.01,SE,137,4.0,5.0,72,0.00,,CLR,0.00,VWS V14.01,2013-06-19 02:23:00,
2013-06-18 21:28:00,61.8,52.7,30.01,SE,137,5.0,6.0,72,0.00,,CLR,0.00,VWS V14.01,2013-06-19 02:28:00,
2013-06-18 21:30:00,66.6,51.8,30.01,SE,137,2.0,3.0,59,0.00,,,0.00,VWS V15.00,2013-06-19 02:30:00,
2013-06-18 21:33:00,61.5,52.8,30.01,SE,137,5.0,6.0,73,0.00,,CLR,0.00,VWS V14.01,2013-06-19 02:33:00,
2013-06-18 21:38:00,61.3,52.6,30.01,SE,137,6.0,6.0,73,0.00,,CLR,0.00,VWS V14.01,2013-06-19 02:38:00,
2013-06-18 21:43:00,61.0,52.7,30.01,SE,137,5.0,6.0,74,0.00,,CLR,0.00,VWS V14.01,2013-06-19 02:43:00,
2013-06-18 21:45:00,65.5,52.6,30.01,SE,137,4.0,5.0,63,0.00,,,0.00,VWS V15.00,2013-06-19 02:45:00,
2013-06-18 21:48:00,60.9,52.6,30.01,SE,137,5.0,5.0,74,0.00,,CLR,0.00,VWS V14.01,2013-06-19 02:48:00,
2013-06-18 21:53:00,60.5,52.5,30.01,SE,137,6.0,6.0,75,0.00,,CLR,0.00,VWS V14.01,2013-06-19 02:53:00,
2013-06-18 21:58:00,60.2,52.3,30.01,SE,137,6.0,6.0,75,0.00,,CLR,0.00,VWS V14.01,2013-06-19 02:58:00,
2013-06-18 22:00:00,64.2,53.0,30.01,SE,137,4.0,5.0,67,0.00,,,0.00,VWS V15.00,2013-06-19 03:00:00,
2013-06-18 22:03:00,59.9,52.0,30.02,SE,137,4.0,5.0,75,0.00,,CLR,0.00,VWS V14.01,2013-06-19 03:03:00,
2013-06-18 22:09:00,59.8,52.2,30.02,SE,137,4.0,5.0,76,0.00,,CLR,0.00,VWS V14.01,2013-06-19 03:09:00,
2013-06-18 22:14:00,59.8,53.3,30.02,SE,137,4.0,5.0,79,0.00,,CLR,0.00,VWS V14.01,2013-06-19 03:14:00,
2013-06-18 22:15:00,62.6,53.5,30.01,SE,137,5.0,6.0,72,0.00,,,0.00,VWS V15.00,2013-06-19 03:15:00,
2013-06-18 22:19:00,59.6,53.1,30.02,SE,137,4.0,5.0,79,0.00,,CLR,0.00,VWS V14.01,2013-06-19 03:19:00,
2013-06-18 22:24:00,59.5,53.3,30.02,SE,137,6.0,6.0,80,0.00,,CLR,0.00,VWS V14.01,2013-06-19 03:24:00,
2013-06-18 22:29:00,59.2,53.0,30.02,SE,137,5.0,6.0,80,0.00,,CLR,0.00,VWS V14.01,2013-06-19 03:29:00,
2013-06-18 22:30:00,61.6,52.5,30.01,SE,137,6.0,6.0,72,0.00,,,0.00,VWS V15.00,2013-06-19 03:30:00,
2013-06-18 22:34:00,59.0,53.2,30.01,SE,137,5.0,6.0,81,0.00,,CLR,0.00,VWS V14.01,2013-06-19 03:34:00,
2013-06-18 22:39:00,58.6,52.5,30.01,SE,137,5.0,6.0,80,0.00,,CLR,0.00,VWS V14.01,2013-06-19 03:39:00,
2013-06-18 22:44:00,58.6,52.8,30.01,SE,137,7.0,7.0,81,0.00,,CLR,0.00,VWS V14.01,2013-06-19 03:44:00,
2013-06-18 22:45:00,60.9,52.6,30.01,SE,137,5.0,6.0,74,0.00,,,0.00,VWS V15.00,2013-06-19 03:45:00,
2013-06-18 22:49:00,58.6,52.5,30.02,SE,137,5.0,6.0,80,0.00,,CLR,0.00,VWS V14.01,2013-06-19 03:49:00,
2013-06-18 22:54:00,58.6,52.5,30.02,SE,137,8.0,8.0,80,0.00,,CLR,0.00,VWS V14.01,2013-06-19 03:54:00,
2013-06-18 22:59:00,58.6,52.5,30.02,SE,137,7.0,8.0,80,0.00,,CLR,0.00,VWS V14.01,2013-06-19 03:59:00,
2013-06-18 23:00:00,59.9,52.0,30.02,SE,137,5.0,6.0,75,0.00,,,0.00,VWS V15.00,2013-06-19 04:00:00,
2013-06-18 23:01:00,58.6,52.8,30.02,SE,137,3.0,9.0,81,0.00,,CLR,0.00,VWS V14.01,2013-06-19 04:01:00,
2013-06-18 23:02:00,58.6,53.1,30.02,SE,137,6.0,9.0,82,0.00,,SCT120,0.00,VWS V14.01,2013-06-19 04:02:00,
2013-06-18 23:03:00,58.6,53.1,30.02,SE,137,7.0,7.0,82,0.00,,SCT120,0.00,VWS V14.01,2013-06-19 04:03:00,
2013-06-18 23:08:00,58.3,52.8,30.02,SE,137,4.0,8.0,82,0.00,,SCT120,0.00,VWS V14.01,2013-06-19 04:08:00,
2013-06-18 23:13:00,58.0,52.9,30.02,SE,137,5.0,8.0,83,0.00,,SCT120,0.00,VWS V14.01,2013-06-19 04:13:00,
2013-06-18 23:15:00,59.6,53.1,30.02,SE,137,4.0,5.0,79,0.00,,,0.00,VWS V15.00,2013-06-19 04:15:00,
2013-06-18 23:18:00,57.5,52.7,30.02,SE,137,2.0,4.0,84,0.00,,SCT120,0.00,VWS V14.01,2013-06-19 04:18:00,
2013-06-18 23:23:00,57.3,52.5,30.02,SE,137,4.0,6.0,84,0.00,,SCT120,0.00,VWS V14.01,2013-06-19 04:23:00,
2013-06-18 23:28:00,57.2,52.7,30.02,SE,137,4.0,6.0,85,0.00,,SCT120,0.00,VWS V14.01,2013-06-19 04:28:00,
2013-06-18 23:30:00,59.0,53.2,30.01,SE,137,5.0,6.0,81,0.00,,,0.00,VWS V15.00,2013-06-19 04:30:00,
2013-06-18 23:33:00,57.0,52.9,30.02,SE,137,4.0,5.0,86,0.00,,SCT120,0.00,VWS V14.01,2013-06-19 04:33:00,
2013-06-18 23:38:00,56.9,52.8,30.02,SE,137,3.0,5.0,86,0.00,,SCT120,0.00,VWS V14.01,2013-06-19 04:38:00,
2013-06-18 23:43:00,56.7,52.6,30.02,SE,137,3.0,5.0,86,0.00,,SCT120,0.00,VWS V14.01,2013-06-19 04:43:00,
2013-06-18 23:45:00,58.6,52.5,30.02,SE,137,4.0,7.0,80,0.00,,,0.00,VWS V15.00,2013-06-19 04:45:00,
2013-06-18 23:48:00,56.7,52.9,30.02,SE,137,5.0,5.0,87,0.00,,SCT120,0.00,VWS V14.01,2013-06-19 04:48:00,
2013-06-18 23:53:00,56.5,52.7,30.02,SE,137,4.0,6.0,87,0.00,,SCT120,0.00,VWS V14.01,2013-06-19 04:53:00,
2013-06-18 23:59:00,56.5,53.0,30.02,SE,137,5.0,7.0,88,0.00,,SCT120,0.00,VWS V14.01,2013-06-19 04:59:00,